STARLINK-32630, 62047

Orbit data source: Space-Track

STARLINK-32630, 62047 is a payload satellite owned by SpaceX/Seattle (US) in LEO that was launched on Thu, 21 Nov 2024 UTC via an FALCON 9 launch vehicle from the Air Force Eastern Test Range (AFETR). Payloads include a variety of satellites, spacecraft, and rockets equipped with specific instruments for various scientific and technological missions. These include communications satellites like Starlink; space stations such as the ISS; scientific satellites like the Hubble; Earth observation satellites from companies like Planet Labs, Umbra, and HawkEye 360; GPS; miniature CubeSats for education and research; and military/defense satellites.

Loading next visibility...
STARLINK-32630 details
Identifier
62047, 2024-216R
Orbit
LEO
Last TLE update7 hours ago
Origin
Flag of USSpaceX/Seattle (US)
ManufacturerSpaceX/Seattle
MissionOperational spacecraft
Bus & MotorSTARLINK V2M, Unknown motor
Mass730 kg wet, ~700 kg dry
Launch date (UTC)
2024-11-21 (1 month ago)
Launch vehicle
FALCON 9
Launch site
Air Force Eastern Test Range (AFETR)
Object type
Payload
Rocket body
Debris
Shape & HBRUnknown
Radar Cross SectionLarge (>1 m²)

Expand to show TLE details & history

TLE from 7 hours ago
0 STARLINK-32630
1 62047U 24216R   24361.16668981  .00102257  00000-0  24245-2 0  9991
2 62047  42.9992 233.6328 0001753 273.9790 290.0265 15.40674957  6497
Epoch: 2024-12-26T04:00Z
Definitive object data (Epoch: 2024-12-26T04:00:01.999Z)
Latitude-16.23799°
Longitude-83.43022°
Altitude446.971 km
Speed7.645 km/s
True Right ascension04h 46m 54s
True Declination-16° 08' 30"
Sunlit
Object was in full shadow at TLE epoch
Visualization TLE readout
Latitude-18.53793°
Longitude55.8928°
Altitude447.259 km
Speed7.645 km/s
Apparent Right ascension17h 11m 08s
Apparent Declination-47° 11' 18"
Sunlit
Object is in daylight
Visualization observer readout
Local Sidereal Time10:07:59
Azimuth124.174° SE
Elevation-37.774°
Doppler factor1
Orbital elements
Apogee altitude447.269 km
Perigee altitude444.876 km
Semi-major axis6,824.209 km
Eccentricity0.0001753
Inclination42.9992°
RAAN233.6328°
Arg. of periapsis273.979°
True anomaly290.00763°
Mean anomaly290.0265°
Eccentric anomaly290.01706°
Mean motion3.85003 °/min
BSTAR0.0024245
Orbital period93.51 mins
Loading maneuver chart data...
Loading historical data...
Loading historical data...
Loading historical data...
Loading historical data...
Loading historical data...
Loading historical data...
Loading historical data...

STARLINK-32630 Visibility forecast

Observer location: undefined°, undefined

Span
Click to sort rows by Start time (UTC) header in descending order
Start Az.
Max El. time (UTC)
Max El. Az.
Max El.
End time (UTC)
End Az.
5 mins2024-12-26 18:52:44.871Z207.744° SW2024-12-26 18:55:44.871Z135.217° SSE26.178°2024-12-26 18:57:44.871Z92.836° ESE
4 mins2024-12-26 20:31:44.871Z267.592° W2024-12-26 20:33:44.871Z41.495° NE40.662°2024-12-26 20:35:44.871Z68.234° E
5 mins2024-12-26 22:09:44.871Z297.638° NW2024-12-26 22:11:44.871Z16.628° NNE37.097°2024-12-26 22:14:44.871Z79.287° E
5 mins2024-12-26 23:47:44.871Z284.722° WNW2024-12-26 23:49:44.871Z201.513° SSW44.477°2024-12-26 23:52:44.871Z114.733° SE
|